TimeAKST,TemperatureF,Dew PointF,Humidity,Sea Level PressureIn,VisibilityMPH,Wind Direction,Wind SpeedMPH,Gust SpeedMPH,PrecipitationIn,Events,Conditions,WindDirDegrees,DateUTC
12:53 AM,25.0,21.9,88,30.01,10.0,Calm,Calm,-,N/A,,Clear,0,2014-03-01 09:53:00
1:53 AM,26.1,21.9,84,30.01,10.0,Calm,Calm,-,N/A,,Partly Cloudy,0,2014-03-01 10:53:00
2:53 AM,25.0,21.9,88,30.01,10.0,Calm,Calm,-,N/A,,Scattered Clouds,0,2014-03-01 11:53:00
3:33 AM,24.8,21.2,86,30.01,0.8,Calm,Calm,-,N/A,,Scattered Clouds,0,2014-03-01 12:33:00
3:40 AM,23.0,19.4,86,30.00,0.2,Calm,Calm,-,N/A,Fog,Light Freezing Fog,0,2014-03-01 12:40:00
3:53 AM,21.0,19.0,92,30.01,0.2,Calm,Calm,-,N/A,Fog,Light Freezing Fog,0,2014-03-01 12:53:00
4:41 AM,23.0,19.4,86,30.00,2.0,Calm,Calm,-,N/A,,Scattered Clouds,0,2014-03-01 13:41:00
4:53 AM,21.9,19.9,92,30.01,3.0,Calm,Calm,-,N/A,,Scattered Clouds,0,2014-03-01 13:53:00
5:53 AM,21.9,19.0,89,30.01,8.0,Calm,Calm,-,N/A,,Partly Cloudy,0,2014-03-01 14:53:00
6:53 AM,19.9,16.0,85,30.00,10.0,Calm,Calm,-,N/A,,Clear,0,2014-03-01 15:53:00
7:53 AM,21.0,17.1,85,30.00,10.0,Calm,Calm,-,N/A,,Partly Cloudy,0,2014-03-01 16:53:00
7:55 AM,21.2,17.6,86,29.99,10.0,Calm,Calm,-,N/A,,Partly Cloudy,0,2014-03-01 16:55:00
8:53 AM,21.0,19.0,92,30.01,10.0,Calm,Calm,-,N/A,,Partly Cloudy,0,2014-03-01 17:53:00
8:55 AM,21.2,19.4,93,30.00,4.0,Calm,Calm,-,N/A,Fog,Light Freezing Fog,0,2014-03-01 17:55:00
9:04 AM,21.2,19.4,93,30.00,0.5,NW,3.5,-,N/A,Fog,Light Freezing Fog,320,2014-03-01 18:04:00
9:15 AM,21.2,19.4,93,30.00,3.0,Calm,Calm,-,N/A,Fog,Light Freezing Fog,0,2014-03-01 18:15:00
9:53 AM,24.1,24.1,100,30.00,10.0,Calm,Calm,-,N/A,Fog,Light Freezing Fog,0,2014-03-01 18:53:00
10:53 AM,28.0,26.1,92,30.00,10.0,Calm,Calm,-,N/A,,Partly Cloudy,0,2014-03-01 19:53:00
11:53 AM,30.9,26.1,82,30.00,10.0,Calm,Calm,-,N/A,,Clear,0,2014-03-01 20:53:00
12:53 PM,32.0,27.0,82,30.00,10.0,Calm,Calm,-,N/A,,Clear,0,2014-03-01 21:53:00
1:53 PM,35.1,27.0,72,29.99,10.0,Calm,Calm,-,N/A,,Clear,0,2014-03-01 22:53:00
2:53 PM,37.9,27.0,65,29.99,10.0,Calm,Calm,-,N/A,,Clear,0,2014-03-01 23:53:00
3:53 PM,36.0,27.0,70,29.98,10.0,WNW,3.5,-,N/A,,Clear,300,2014-03-02 00:53:00
4:53 PM,35.1,27.0,72,29.96,10.0,NW,3.5,-,N/A,,Clear,310,2014-03-02 01:53:00
5:53 PM,30.9,27.0,85,29.96,10.0,Calm,Calm,-,N/A,,Clear,0,2014-03-02 02:53:00
6:53 PM,28.9,25.0,85,29.96,10.0,Calm,Calm,-,N/A,,Clear,0,2014-03-02 03:53:00
7:53 PM,27.0,23.0,85,29.96,10.0,Calm,Calm,-,N/A,,Clear,0,2014-03-02 04:53:00
8:53 PM,25.0,21.9,88,29.96,3.0,Calm,Calm,-,N/A,,Clear,0,2014-03-02 05:53:00
9:53 PM,26.1,23.0,88,29.96,10.0,Calm,Calm,-,N/A,,Partly Cloudy,0,2014-03-02 06:53:00
10:53 PM,23.0,19.9,88,29.95,10.0,Calm,Calm,-,N/A,,Partly Cloudy,0,2014-03-02 07:53:00
11:53 PM,21.0,18.0,88,29.95,10.0,Calm,Calm,-,N/A,,Partly Cloudy,0,2014-03-02 08:53:00